Погода в Владикавказе

Погода в Владикавказе : погода сейчас, прогноз погоды и архив. Всё, что Вы хотите узнать о погоде в Владикавказе!

Поиск расширенной информации на нашем сайте:

Другие новости

Новости СМИ2

Главная страница сайта

Новости сайта

03.07.2017

Напоминаем, что на нашем специализированном сайте Метеоцентр.Азия вы можете получить высокодетализированные автоматические прогнозы погоды по пунктам России, СНГ и мира в авиационном формате (включающие направление и скорость ветра, видимость, явления погоды, количество и форму облачности, нижнюю и верхнюю границу облачности).

Рекомендуем: Интернет магазин вышивки и вязания пряжа http://www.kudel.ru.

Погода в Владикавказе - сегодня

Время (UTC), дата Ветер
(°,м/с) 
Видим.   Явления Облачность Т
(°С)
Тd
(°С)
f(%) Тe
(°С)
Pmin
(гПа)
dP
(гПа)
Po
(мм)
O2
(г/м3)
Тmin Tmax R s Состояние
почвы
18 19.07.17 150 (ЮВ) 1{16}  10 км    8/0 средняя 
[Ac As]
+22.3 +15.6 66 +34  1011.2  3.5  700  257           
21 19.07.17 160 (Ю) 10 км    8/0 средняя 
[Ac As]
+22.3 +15.6 66 +34  1011.2  -2.5  698  257           
00 20.07.17 150 (ЮВ) 10 км    10/10 600 м 
[Sc]
+22.3 +14.1 60 +31  1006.6  -1.8  697  257           
03 20.07.17 300 (СЗ) 20000 м    9/3 600 м средняя 
[Cu Sc|Ac As]
+22.4 +13.2 56 +30  1006.9  0.4  697  257  +21.6        сухая 
06 20.07.17 320 (СЗ) 20000 м    8/3 600 м средняя 
[Cu Sc|Ac As]
+26.4 +11.8 40 +32  1006.6  0.6  698  254  +20         
09 20.07.17 340 (С) 20000 м    3/3 600 м средняя 
[Cu Sc|Ac trans]
+28.4 +12.9 38 +35  1005.8  -0.3  697  252           
12 20.07.17 300 (СЗ) 20000 м    6/3 600 м средняя 
[Cu Sc|Ac und]
+29.9 +14.1 38 +39  1004.4  -0.9  697  250           
15 20.07.17 270 (З) 20000 м    9/5 600 м средняя 
[Cu Sc|Ac und]
+26.9 +15.2 49 +38  1006  0.8  697  253    +30.3       
18 20.07.17 190 (Ю) 10 км    3/0 средняя 
[Ac und]
+22.3 +14.2 60 +32  1008.1  0.8  698  257           
21 20.07.17 170 (Ю) 10 км    ясно 
+19.6 +15.2 76 +32  1009.3  0.4  698  259           
00 21.07.17 170 (Ю) 10 км    5/0 средняя 
[Ac As]
+18.5 +14.8 79 +30  1009.9  0.3  698  260           
03 21.07.17 тихо ()   20000 м    8/4 600 м средняя, верхняя 
[Cu hum|Ac trans|Ci fib]
+18.5 +15 80 +29  1011.5  1.5  700  261  +17.6        сухая 
06 21.07.17 310 (СЗ) 20000 м    5/3 600 м верхняя 
[Cu hum|Cs]
+22.7 +12.5 53 +29  1012.2  0.9  700  258           
09 21.07.17 290 (З) 10 км    9/5 600 м средняя 
[Sc|Ac As]
+25.3 +14.6 52 +35  1011  0.9  700  255           
12 21.07.17 280 (З) 10 км    10/6 600 м кучево-дожд., средняя 
[Cb calv|Ac As]
+25.9 +14.6 50 +36  1011  0.2  701  255           
15 21.07.17 210 (ЮЗ) 10 км    10/6 600 м кучево-дожд., средняя 
[Cb calv|Ac As]
+25.1 +15.3 55 +36  1011.5  0.3  701  255    +27.6       
18 21.07.17 тихо ()   10 км    8/8 600 м 
[Sc]
+23.1 +16.4 66 +36  1013.1  702  257           
21 21.07.17 160 (Ю) 10 км    9/9 600 м 
[Sc]
+21 +15.6 71 +33  1013.3  -0.4  701  259           
00 22.07.17 160 (Ю) 10 км    9/9 600 м 
[Sc]
+19.5 +15.1 76 +32  1013.3  -0.4  701  260           
03 22.07.17 160 (Ю) 20000 м    8/5 600 м средняя 
[Sc|Ac und]
+19.5 +14.9 75 +31  1013.3  701  260  +19.2        сухая 
06 22.07.17 280 (З) 20000 м    5/3 600 м средняя, верхняя 
[Cu med, cong|Ac trans|Cs]
+25.1 +16.3 58 +38  1011.7  701  255           
09 22.07.17 080 (В) 20000 м    8/4 600 м средняя 
[Sc diur, vesp|Ac As]
+28.1 +15.6 47 +40  1009.7  -1.2  700  252           
12 22.07.17 150 (ЮВ) 20000 м    8/5 600 м кучево-дожд., средняя 
[Cb calv|Ac As]
+28.6 +15.4 45 +40  1008.2  -1.2  699  252           
15 22.07.17 290 (З) 20000 м    8/5 600 м средняя 
[Sc|Ac As]
+27.2 +16.4 52 +41  1008.5  699  253    +29.8       
18 22.07.17 160 (Ю) 10 км    6/3 600 м средняя 
[Sc|Ac As]
+23 +18.1 74 +40  1010.4  0.7  700  256           
Время (UTC), дата Ветер
(°,м/с) 
Видим.   Явления Облачность Т
(°С)
Тd
(°С)
f(%) Тe
(°С)
Pmin
(гПа)
dP
(гПа)
Po
(мм)
O2
(г/м3)
Тmin Tmax R s Состояние
почвы

Для получения пояснительной информации подведите курсор к названию столбца.

ПОГОДА в Владикавказе - архив

Всё, что Вы хотите узнать о погоде в Владикавказе - удобно и подробно!

Выберите нужную дату (начиная с 1 января 2015* года) и нажмите кнопку "Найти".
Будут отображены архивные сводки погоды по пункту Владикавказ, начиная с указанной даты.


Отображать данные в формате CSV (для использования в таблицах Excel)


Внимание! Наш архив погоды предназначен исключительно для личного некоммерческого использования в познавательных целях. Если Вам необходимы официальные справки о состоянии погоды (для производственных, юридических, коммерческих и т.п. целей), обращайтесь в органы Росгидромета.

*Примечание: данная дата относится к архиву по метеостанциям СССР (Россия, СНГ, Балтия).
Архив по метеостанциям Зарубежной Европы и Азии (кроме Китая) хранится 10 дней, по другим регионам земного шара (Китай, Африка, Америка, Австралия, Океания) - 1 день.

Владикавказ - район местоположения метеостанции


Название, широта, долгота, высота метеостанции:
Владикавказ 43.1°ш. 44.6°д. 703 м над ур. моря [Российская Федерация]

Дополнительная информация

В oтличие oт бoльшинства пoгoдных сайтoв мы публикуем пoдрoбную метеoинфoрмацию в детальнoм прoфессиoнальнoм фoрмате.

Характеристики температуры и влажнoсти вoздуха измеряются на высoте 2 м в тени вдали oт зданий и деревьев.
Скoрoсть ветра измеряется на высoте 10 м (на урoвне рoста челoвека скoрoсть ветра ниже в 1.5-2 раза). Если метеoстанция нахoдится в гoрoде или в лесу, тo скoрoсть ветра занижена на 2-4 м/с пo сравнению с oткрытым местoм. Скoрoсть ветра над акватoриями крупных рек и oзёр, а также на вершинах хoлмoв на 2-5 м/с выше, чем в oбычных услoвиях.
Атмoсфернoе давление в разных тoчках местнoсти мoжет значительнo oтличаться oт давления на метеoстанции, в зависимoсти oт услoвий рельефа (при пoдъёме на 10 м давление пoнижается примернo на 1 мм рт.ст.).